Location: Newark
(43.0000°N, 1.6781°W)
Time: 17:01:31
(UTC+00:00)

Transit 2A Rocket - Pass Details

Date: 24 April 2021
Orbit: 594 x 909 km, 66.7° (Epoch: 10 May)

Event Time Altitude Azimuth Distance (km) Brightness Sun altitude
Rises 21:41:58 0° 340° (NNW) 2,878 9.2 -25.0°
Reaches altitude 10° 21:44:41 10° 357° (N) 2,002 7.9 -25.3°
Maximum altitude 21:48:04 21° 46° (NE) 1,470 6.5 -25.7°
Enters shadow 21:48:15 21° 49° (NE) 1,474 6.5 -25.7°
